Weather History for KDTL - April, 2014

Change the Weather History Date:

Saturday, April 5, 2014

  Actual Average Record
Temperature  
Mean Temperature 38 °F -  
Max Temperature 51 °F 47 °F 77 °F (1991)
Min Temperature 26 °F 22 °F -1 °F (1979)
Degree Days  
Heating Degree Days 26    
Moisture  
Dew Point 32 °F    
Average Humidity 79    
Maximum Humidity 100    
Minimum Humidity 54    
Precipitation  
Precipitation 0.00 in - - ()
Sea Level Pressure  
Sea Level Pressure 29.91 in    
Wind  
Wind Speed 8 mph (South)    
Max Wind Speed 18 mph    
Max Gust Speed 23 mph    
Visibility 10 miles    
Events      
Averages and records for this station are not official NWS values.
T = Trace of Precipitation, MM = Missing Value Source: NWS Daily Summary

Daily Weather History Graph

Daily Weather History Graph

Search for Another Location

Airport or City:

Trip Planner

Search our weather history database for the weather conditions in past years. The results will help you decide how hot, cold, wet, or windy it might be!

Date:

Astronomy

Apr. 05, 2014 Rise Set
Actual Time 6:54 AM CDT 7:58 PM CDT
Civil Twilight 6:23 AM CDT 8:29 PM CDT
Nautical Twilight 5:46 AM CDT 9:06 PM CDT
Astronomical Twilight 5:07 AM CDT 9:46 PM CDT
Moon 10:50 AM CDT (4/5) 1:22 AM CDT (4/5)
Length of Visible Light 14h 05m
Length of Day
13h 03m
Waxing Crescent, 34% of the Moon is Illuminated
Apr 5
Waxing Crescent
Apr 7
First Quarter
Apr 15
Full
Apr 22
Last Quarter
Apr 29
New

Hourly Weather History & Observations

Time (CDT) Temp. Windchill Dew Point Humidity Pressure Visibility Wind Dir Wind Speed Gust Speed Precip Events Conditions
12:14 AM 30.2 °F 26.7 °F 28.4 °F 93% 30.02 in 10.0 mi SW 3.5 mph - N/A   Overcast
12:35 AM 30.2 °F 26.7 °F 28.4 °F 93% 30.02 in 10.0 mi WSW 3.5 mph - N/A   Overcast
12:55 AM 30.2 °F 24.3 °F 26.6 °F 86% 30.01 in 10.0 mi SW 5.8 mph - N/A   Overcast
1:14 AM 30.2 °F 25.4 °F 26.6 °F 86% 30.02 in 10.0 mi SW 4.6 mph - N/A   Overcast
1:35 AM 28.4 °F 23.3 °F 26.6 °F 93% 30.02 in 10.0 mi SSW 4.6 mph - N/A   Mostly Cloudy
1:55 AM 28.4 °F 23.3 °F 26.6 °F 93% 30.02 in 10.0 mi South 4.6 mph - N/A   Mostly Cloudy
2:14 AM 28.4 °F 23.3 °F 26.6 °F 93% 30.01 in 10.0 mi South 4.6 mph - N/A   Mostly Cloudy
2:35 AM 28.4 °F 23.3 °F 26.6 °F 93% 30.01 in 10.0 mi South 4.6 mph - N/A   Clear
2:55 AM 28.4 °F 24.6 °F 26.6 °F 93% 30.00 in 10.0 mi South 3.5 mph - N/A   Clear
3:14 AM 28.4 °F 23.3 °F 26.6 °F 93% 30.00 in 10.0 mi SSE 4.6 mph - N/A   Clear
3:35 AM 26.6 °F 22.6 °F 24.8 °F 93% 30.00 in 10.0 mi SSE 3.5 mph - N/A   Clear
3:55 AM 26.6 °F 22.6 °F 26.6 °F 100% 29.99 in 10.0 mi SSE 3.5 mph - N/A   Clear
4:14 AM 26.6 °F 20.0 °F 26.6 °F 100% 29.98 in 10.0 mi SSE 5.8 mph - N/A   Clear
4:35 AM 26.6 °F 20.0 °F 26.6 °F 100% 29.98 in 10.0 mi SSE 5.8 mph - N/A   Clear
4:54 AM 26.6 °F 20.0 °F 24.8 °F 93% 29.97 in 10.0 mi SSE 5.8 mph - N/A   Clear
5:15 AM 26.6 °F 20.0 °F 26.6 °F 100% 29.97 in 10.0 mi SSE 5.8 mph - N/A   Clear
5:35 AM 26.6 °F 18.2 °F 26.6 °F 100% 29.96 in 10.0 mi South 8.1 mph - N/A   Clear
5:54 AM 26.6 °F 19.1 °F 26.6 °F 100% 29.96 in 10.0 mi South 6.9 mph - N/A   Clear
6:15 AM 28.4 °F 20.4 °F 26.6 °F 93% 29.96 in 10.0 mi South 8.1 mph - N/A   Clear
6:35 AM 28.4 °F 20.4 °F 26.6 °F 93% 29.96 in 10.0 mi South 8.1 mph - N/A   Clear
6:54 AM 28.4 °F 20.4 °F 26.6 °F 93% 29.96 in 10.0 mi South 8.1 mph - N/A   Clear
7:35 AM 28.4 °F 20.4 °F 26.6 °F 93% 29.96 in 10.0 mi SSE 8.1 mph - N/A   Clear
7:54 AM 28.4 °F 19.7 °F 26.6 °F 93% 29.96 in 10.0 mi South 9.2 mph - N/A   Clear
8:15 AM 30.2 °F 21.9 °F 28.4 °F 93% 29.95 in 10.0 mi South 9.2 mph - N/A   Clear
8:35 AM 30.2 °F 21.9 °F 28.4 °F 93% 29.95 in 10.0 mi South 9.2 mph - N/A   Clear
8:54 AM 32.0 °F 23.6 °F 28.4 °F 87% 29.95 in 10.0 mi SSE 10.4 mph - N/A   Clear
9:15 AM 32.0 °F 23.0 °F 28.4 °F 87% 29.94 in 10.0 mi SSE 11.5 mph - N/A   Clear
9:35 AM 33.8 °F 24.3 °F 30.2 °F 87% 29.93 in 10.0 mi SSE 13.8 mph - N/A   Clear
9:54 AM 33.8 °F 24.3 °F 30.2 °F 87% 29.93 in 10.0 mi SSE 13.8 mph - N/A   Clear
10:15 AM 35.6 °F 27.5 °F 30.2 °F 81% 29.92 in 10.0 mi SSE 11.5 mph - N/A   Clear
10:35 AM 37.4 °F 28.9 °F 30.2 °F 75% 29.92 in 10.0 mi SSE 13.8 mph - N/A   Clear
10:54 AM 37.4 °F 28.9 °F 30.2 °F 75% 29.91 in 10.0 mi SSE 13.8 mph - N/A   Clear
11:15 AM 39.2 °F 31.2 °F 32.0 °F 75% 29.91 in 10.0 mi SSE 13.8 mph - N/A   Clear
11:35 AM 41.0 °F 33.1 °F 32.0 °F 70% 29.90 in 10.0 mi SSE 15.0 mph - N/A   Clear
11:54 AM 42.8 °F 35.4 °F 32.0 °F 66% 29.89 in 10.0 mi South 15.0 mph 20.7 mph N/A   Clear
12:14 PM 44.6 °F 36.9 °F 32.0 °F 61% 29.89 in 10.0 mi South 18.4 mph - N/A   Clear
12:35 PM 46.4 °F 40.1 °F 32.0 °F 57% 29.88 in 10.0 mi South 15.0 mph - N/A   Clear
12:54 PM 46.4 °F 39.8 °F 32.0 °F 57% 29.88 in 10.0 mi South 16.1 mph - N/A   Clear
1:14 PM 46.4 °F 39.5 °F 32.0 °F 57% 29.87 in 10.0 mi South 17.3 mph 20.7 mph N/A   Clear
1:35 PM 46.4 °F 40.1 °F 33.8 °F 62% 29.87 in 10.0 mi South 15.0 mph 20.7 mph N/A   Clear
1:54 PM 50.0 °F - 33.8 °F 54% 29.87 in 10.0 mi South 15.0 mph - N/A   Clear
2:14 PM 50.0 °F - 33.8 °F 54% 29.86 in 10.0 mi South 13.8 mph - N/A   Clear
2:35 PM 50.0 °F - 33.8 °F 54% 29.85 in 10.0 mi South 16.1 mph 19.6 mph N/A   Clear
2:55 PM 50.0 °F - 35.6 °F 58% 29.85 in 10.0 mi South 13.8 mph 20.7 mph N/A   Clear
3:14 PM 51.8 °F - 35.6 °F 54% 29.85 in 10.0 mi SSW 12.7 mph 19.6 mph N/A   Clear
3:35 PM 51.8 °F - 35.6 °F 54% 29.84 in 10.0 mi SSW 13.8 mph 23.0 mph N/A   Clear
3:55 PM 51.8 °F - 35.6 °F 54% 29.83 in 10.0 mi South 15.0 mph - N/A   Clear
4:14 PM 51.8 °F - 35.6 °F 54% 29.83 in 10.0 mi South 15.0 mph - N/A   Clear
4:35 PM 51.8 °F - 37.4 °F 58% 29.83 in 10.0 mi South 17.3 mph - N/A   Clear
4:55 PM 51.8 °F - 37.4 °F 58% 29.83 in 10.0 mi South 13.8 mph - N/A   Clear
5:14 PM 51.8 °F - 37.4 °F 58% 29.83 in 10.0 mi South 11.5 mph - N/A   Clear
5:35 PM 51.8 °F - 37.4 °F 58% 29.82 in 10.0 mi SSW 13.8 mph 18.4 mph N/A   Clear
5:55 PM 51.8 °F - 39.2 °F 62% 29.82 in 10.0 mi South 12.7 mph 17.3 mph N/A   Clear
6:14 PM 51.8 °F - 37.4 °F 58% 29.83 in 10.0 mi SSW 13.8 mph - N/A   Clear
6:35 PM 50.0 °F - 37.4 °F 62% 29.83 in 10.0 mi South 10.4 mph - N/A   Clear
6:55 PM 50.0 °F - 37.4 °F 62% 29.84 in 10.0 mi SSW 13.8 mph - N/A   Clear
7:14 PM 48.2 °F - 37.4 °F 66% 29.84 in 10.0 mi SSW 9.2 mph - N/A   Clear
7:35 PM 46.4 °F 41.1 °F 37.4 °F 71% 29.85 in 10.0 mi SSW 11.5 mph - N/A   Clear
7:55 PM 44.6 °F 40.2 °F 35.6 °F 71% 29.85 in 10.0 mi South 8.1 mph - N/A   Clear
8:14 PM 44.6 °F 38.8 °F 37.4 °F 76% 29.85 in 10.0 mi South 11.5 mph - N/A   Clear
8:35 PM 42.8 °F 37.0 °F 37.4 °F 81% 29.86 in 10.0 mi South 10.4 mph - N/A   Clear
8:55 PM 42.8 °F 37.0 °F 37.4 °F 81% 29.86 in 10.0 mi South 10.4 mph - N/A   Clear
9:14 PM 41.0 °F 35.2 °F 35.6 °F 81% 29.86 in 10.0 mi SSE 9.2 mph - N/A   Clear
9:35 PM 39.2 °F 33.0 °F 35.6 °F 87% 29.86 in 10.0 mi SSE 9.2 mph - N/A   Clear
9:55 PM 39.2 °F 33.6 °F 35.6 °F 87% 29.86 in 10.0 mi SSE 8.1 mph - N/A   Clear
10:14 PM 37.4 °F 31.4 °F 35.6 °F 93% 29.86 in 10.0 mi South 8.1 mph - N/A   Clear
10:35 PM 37.4 °F 33.8 °F 33.8 °F 87% 29.86 in 10.0 mi South 4.6 mph - N/A   Clear
10:55 PM 39.2 °F - 35.6 °F 87% 29.87 in 10.0 mi Calm Calm - N/A   Clear
11:14 PM 37.4 °F - 35.6 °F 93% 29.86 in 10.0 mi Calm Calm - N/A   Clear
11:35 PM 37.4 °F 34.9 °F 35.6 °F 93% 29.86 in 10.0 mi NE 3.5 mph - N/A   Clear
11:55 PM 37.4 °F 33.8 °F 33.8 °F 87% 29.85 in 10.0 mi East 4.6 mph - N/A   Clear